Weather History for Beaufort, SC

Change the Weather History Date:

Friday, May 24, 2013

  Actual Average (KNBC) Record (KNBC)
Temperature  
Mean Temperature 78 °F -  
Max Temperature 86 °F 84 °F 98 °F (2011)
Min Temperature 68 °F 65 °F 49 °F (1951)
Cooling Degree Days 12    
Growing Degree Days 28 (Base 50)    
Moisture  
Dew Point 57 °F    
Average Humidity 53    
Maximum Humidity 78    
Minimum Humidity 30    
Precipitation  
Precipitation 0.00 in - - ()
Sea Level Pressure  
Sea Level Pressure 29.99 in    
Wind  
Wind Speed 9 mph (NW)    
Max Wind Speed 17 mph    
Max Gust Speed 24 mph    
Visibility 8 miles    
Events      
Averages and records for this station are not official NWS values.
T = Trace of Precipitation, MM = Missing Value Source: NWS Daily Summary

Daily Weather History Graph

Daily Weather History Graph

Search for Another Location

Airport:

Trip Planner

Search our weather history database for the weather conditions in past years. The results will help you decide how hot, cold, wet, or windy it might be!

Date:

Astronomy

May. 24, 2013 Rise Set
Actual Time 6:19 AM EDT 8:20 PM EDT
Civil Twilight 5:51 AM EDT 8:47 PM EDT
Nautical Twilight 5:18 AM EDT 9:21 PM EDT
Astronomical Twilight 4:42 AM EDT 9:57 PM EDT
Moon 8:01 PM EDT (5/24) 5:47 AM EDT (5/24)
Length of Visible Light 14h 56m
Length of Day
14h 00m
Full, 100% of the Moon is Illuminated
May 24
Full
May 25
Full
May 31
Last Quarter
Jun 8
New
Jun 16
First Quarter

Hourly Weather History & Observations

Time (EDT) Temp. Heat Index Dew Point Humidity Pressure Visibility Wind Dir Wind Speed Gust Speed Precip Events Conditions
12:15 AM 73.4 °F - 64.4 °F 73% 29.91 in 10.0 mi SW 4.6 mph - N/A   Clear
12:35 AM 71.6 °F - 64.4 °F 78% 29.91 in 10.0 mi SW 4.6 mph - N/A   Clear
12:55 AM 71.6 °F - 64.4 °F 78% 29.91 in 7.0 mi SW 5.8 mph - N/A   Clear
1:15 AM 73.4 °F - 64.4 °F 73% 29.90 in 7.0 mi SW 8.1 mph - N/A   Clear
1:35 AM 75.2 °F - 64.4 °F 69% 29.90 in 7.0 mi SW 8.1 mph - N/A   Clear
1:55 AM 75.2 °F - 64.4 °F 69% 29.90 in 10.0 mi West 8.1 mph - N/A   Clear
2:15 AM 73.4 °F - 62.6 °F 69% 29.90 in 7.0 mi West 9.2 mph - N/A   Scattered Clouds
2:35 AM 73.4 °F - 62.6 °F 69% 29.90 in 10.0 mi West 10.4 mph - N/A   Clear
2:55 AM 73.4 °F - 62.6 °F 69% 29.90 in 10.0 mi West 9.2 mph - N/A   Clear
3:15 AM 73.4 °F - 62.6 °F 69% 29.90 in 7.0 mi West 6.9 mph - N/A   Clear
3:35 AM 73.4 °F - 62.6 °F 69% 29.90 in 7.0 mi West 9.2 mph - N/A   Clear
3:55 AM 71.6 °F - 62.6 °F 73% 29.90 in 7.0 mi West 8.1 mph - N/A   Clear
4:15 AM 71.6 °F - 60.8 °F 69% 29.90 in 10.0 mi West 8.1 mph - N/A   Clear
4:35 AM 71.6 °F - 60.8 °F 69% 29.90 in 10.0 mi WNW 8.1 mph - N/A   Clear
4:55 AM 71.6 °F - 60.8 °F 69% 29.90 in 10.0 mi West 5.8 mph - N/A   Clear
5:15 AM 71.6 °F - 60.8 °F 69% 29.91 in 10.0 mi WNW 8.1 mph - N/A   Clear
5:35 AM 71.6 °F - 60.8 °F 69% 29.91 in 7.0 mi West 5.8 mph - N/A   Clear
5:55 AM 71.6 °F - 60.8 °F 69% 29.92 in 7.0 mi WNW 5.8 mph - N/A   Clear
6:15 AM 71.6 °F - 59.0 °F 64% 29.93 in 10.0 mi WNW 9.2 mph - N/A   Clear
6:35 AM 69.8 °F - 60.8 °F 73% 29.94 in 7.0 mi WNW 4.6 mph - N/A   Clear
6:55 AM 69.8 °F - 60.8 °F 73% 29.94 in 7.0 mi WNW 5.8 mph - N/A   Clear
7:15 AM 71.6 °F - 60.8 °F 69% 29.95 in 7.0 mi West 5.8 mph - N/A   Clear
7:35 AM 71.6 °F - 60.8 °F 69% 29.95 in 5.0 mi West 5.8 mph - N/A   Haze
7:55 AM 71.6 °F - 60.8 °F 69% 29.96 in 7.0 mi WNW 9.2 mph - N/A   Clear
8:15 AM 73.4 °F - 59.0 °F 61% 29.96 in 7.0 mi WNW 6.9 mph - N/A   Clear
8:35 AM 73.4 °F - 59.0 °F 61% 29.96 in 7.0 mi NW 10.4 mph - N/A   Clear
8:55 AM 73.4 °F - 59.0 °F 61% 29.96 in 7.0 mi West 8.1 mph - N/A   Clear
9:15 AM 75.2 °F - 59.0 °F 57% 29.97 in 5.0 mi West 8.1 mph - N/A   Haze
9:35 AM 77.0 °F - 59.0 °F 54% 29.97 in 7.0 mi NNW 11.5 mph - N/A   Clear
9:55 AM 77.0 °F - 60.8 °F 57% 29.97 in 7.0 mi West 9.2 mph - N/A   Clear
10:15 AM 77.0 °F - 60.8 °F 57% 29.98 in 7.0 mi West 10.4 mph - N/A   Clear
10:35 AM 77.0 °F - 60.8 °F 57% 29.98 in 0.8 mi NW 8.1 mph - N/A   Haze
10:55 AM 78.8 °F - 60.8 °F 54% 29.98 in 7.0 mi NNW 9.2 mph 16.1 mph N/A   Clear
11:15 AM 77.0 °F - 60.8 °F 57% 29.99 in 7.0 mi NW 10.4 mph - N/A   Clear
11:35 AM 78.8 °F - 60.8 °F 54% 29.99 in 10.0 mi NW 10.4 mph - N/A   Clear
11:55 AM 78.8 °F - 59.0 °F 51% 30.00 in 7.0 mi NW 5.8 mph - N/A   Clear
12:15 PM 80.6 °F 81.1 °F 59.0 °F 48% 29.99 in 7.0 mi NNW 10.4 mph - N/A   Scattered Clouds
12:35 PM 82.4 °F 82.5 °F 59.0 °F 45% 30.00 in 7.0 mi WNW 13.8 mph 19.6 mph N/A   Scattered Clouds
12:55 PM 80.6 °F 81.1 °F 59.0 °F 48% 30.00 in 7.0 mi WNW 10.4 mph 20.7 mph N/A   Scattered Clouds
1:15 PM 82.4 °F 82.5 °F 59.0 °F 45% 30.00 in 5.0 mi WNW 17.3 mph 23.0 mph N/A   Haze
1:35 PM 82.4 °F 82.5 °F 59.0 °F 45% 30.00 in 7.0 mi NNW 13.8 mph 19.6 mph N/A   Scattered Clouds
1:55 PM 82.4 °F 82.5 °F 59.0 °F 45% 30.00 in 7.0 mi NW 16.1 mph 19.6 mph N/A   Scattered Clouds
2:15 PM 82.4 °F 82.5 °F 59.0 °F 45% 30.00 in 7.0 mi NW 15.0 mph 20.7 mph N/A   Scattered Clouds
2:35 PM 82.4 °F 82.0 °F 57.2 °F 42% 30.01 in 7.0 mi NW 15.0 mph 23.0 mph N/A   Scattered Clouds
2:55 PM 82.4 °F 82.5 °F 59.0 °F 45% 30.01 in 7.0 mi NW 10.4 mph 23.0 mph N/A   Scattered Clouds
3:15 PM 82.4 °F 82.0 °F 57.2 °F 42% 30.00 in 7.0 mi NW 12.7 mph 23.0 mph N/A   Scattered Clouds
3:35 PM 82.4 °F 82.0 °F 57.2 °F 42% 30.00 in 7.0 mi NW 12.7 mph 18.4 mph N/A   Scattered Clouds
3:55 PM 86.0 °F 84.9 °F 57.2 °F 37% 30.00 in 7.0 mi NNW 11.5 mph 21.9 mph N/A   Scattered Clouds
4:15 PM 84.2 °F 83.0 °F 55.4 °F 37% 30.00 in 10.0 mi NNW 15.0 mph 24.2 mph N/A   Scattered Clouds
4:35 PM 84.2 °F 83.0 °F 55.4 °F 37% 30.00 in 7.0 mi NW 13.8 mph 21.9 mph N/A   Scattered Clouds
4:55 PM 84.2 °F 83.0 °F 55.4 °F 37% 30.01 in 7.0 mi NNW 15.0 mph 18.4 mph N/A   Clear
5:15 PM 84.2 °F 82.8 °F 53.6 °F 35% 30.01 in 7.0 mi NNW 16.1 mph 23.0 mph N/A   Clear
5:35 PM 86.0 °F 84.5 °F 55.4 °F 35% 30.01 in 7.0 mi NW 13.8 mph 21.9 mph N/A   Clear
5:55 PM 84.2 °F 82.8 °F 53.6 °F 35% 30.01 in 7.0 mi NNW 13.8 mph - N/A   Clear
6:15 PM 82.4 °F 81.4 °F 53.6 °F 37% 30.02 in 7.0 mi NNW 15.0 mph 18.4 mph N/A   Clear
6:35 PM 82.4 °F - 51.8 °F 35% 30.02 in 7.0 mi NNW 15.0 mph 20.7 mph N/A   Clear
6:55 PM 82.4 °F - 48.2 °F 30% 30.03 in 7.0 mi North 12.7 mph 23.0 mph N/A   Clear
7:15 PM 80.6 °F - 50.0 °F 34% 30.04 in 10.0 mi NNW 10.4 mph 17.3 mph N/A   Clear
7:35 PM 80.6 °F - 48.2 °F 32% 30.05 in 7.0 mi North 11.5 mph 18.4 mph N/A   Clear
7:55 PM 78.8 °F - 46.4 °F 32% 30.06 in 7.0 mi North 9.2 mph - N/A   Clear
8:15 PM 77.0 °F - 50.0 °F 39% 30.07 in 7.0 mi NNW 9.2 mph - N/A   Clear
8:35 PM 77.0 °F - 50.0 °F 39% 30.08 in 10.0 mi North 10.4 mph - N/A   Clear
8:55 PM 77.0 °F - 50.0 °F 39% 30.09 in 7.0 mi North 9.2 mph - N/A   Clear
9:15 PM 75.2 °F - 48.2 °F 38% 30.09 in 7.0 mi North 11.5 mph - N/A   Clear
9:35 PM 75.2 °F - 46.4 °F 36% 30.10 in 7.0 mi NNE 15.0 mph - N/A   Clear
9:55 PM 73.4 °F - 48.2 °F 41% 30.11 in 10.0 mi NNE 11.5 mph - N/A   Clear
10:15 PM 73.4 °F - 48.2 °F 41% 30.14 in 10.0 mi NNE 11.5 mph - N/A   Clear
10:35 PM 71.6 °F - 46.4 °F 41% 30.14 in 10.0 mi North 15.0 mph - N/A   Clear
10:55 PM 71.6 °F - 44.6 °F 38% 30.15 in 10.0 mi NNE 15.0 mph - N/A   Clear
11:15 PM 71.6 °F - 46.4 °F 41% 30.16 in 10.0 mi North 13.8 mph - N/A   Clear
11:35 PM 69.8 °F - 46.4 °F 43% 30.16 in 10.0 mi North 12.7 mph - N/A   Clear
11:55 PM 68.0 °F - 50.0 °F 52% 30.16 in 7.0 mi NNE 13.8 mph 18.4 mph N/A   Clear